This demonstration page uses our WeatherBlox Daily Observations layout. Learn more.

Hourly Observations for July 31, 2020

Temp ( °F °C ) Dew Point ( °F °C ) Humidity (%) Winds ( mph kmh ) Pressure ( in mb ) Visibility ( mi km ) Precip ( " mm )
12:15 am 00:15 Clear 64 17.9 61 16 89 89 NNW 5 7 30.06 1018 10 16.0934 0 0
12:35 am 00:35 Clear 64 17.6 61 16.1 91 91 NNW 5 7 30.07 1018 10 16.0934 0 0
12:55 am 00:55 Clear 64 17.5 61 16 91 91 NW 5 7 30.06 1018 10 16.0934 0 0
1:15 am 01:15 Clear 64 17.5 61 16 91 91 NW 6 9 30.06 1018 10 16.0934 0 0
1:35 am 01:35 Clear 63 17.2 61 16 93 93 NW 5 7 30.06 1018 10 16.0934 0 0
1:55 am 01:55 Clear 63 17.2 60 15.8 92 92 NNW 5 7 30.06 1018 10 16.0934 0 0
2:15 am 02:15 Clear 63 17.1 60 15.8 92 92 NW 5 7 30.06 1018 10 16.0934 0 0
2:35 am 02:35 Clear 62 16.8 60 15.8 94 94 NW 5 7 30.05 1018 10 16.0934 0 0
2:55 am 02:55 Clear 62 16.5 60 15.5 94 94 NW 5 7 30.06 1018 10 16.0934 0 0
3:15 am 03:15 Clear 61 16.2 60 15.3 94 94 NW 5 7 30.05 1018 10 16.0934 0 0
3:35 am 03:35 Clear 61 15.9 59 15.1 95 95 NNW 3 6 30.06 1018 10 16.0934 0 0
3:55 am 03:55 Clear 61 16 59 15 94 94 NNW 5 7 30.06 1018 10 16.0934 0 0
4:15 am 04:15 Clear 60 15.8 59 14.8 94 94 NW 5 7 30.05 1018 10 16.0934 0 0
4:35 am 04:35 Clear 60 15.6 58 14.7 94 94 NW 5 7 30.05 1018 10 16.0934 0 0
4:55 am 04:55 Clear 60 15.6 58 14.6 94 94 NW 3 6 30.05 1018 10 16.0934 0 0
5:15 am 05:15 Clear 59 15.1 58 14.4 96 96 NNW 3 6 30.06 1018 10 16.0934 0 0
5:35 am 05:35 Clear 59 14.9 58 14.2 96 96 NW 3 6 30.06 1018 10 16.0934 0 0
5:55 am 05:55 Clear 58 14.5 57 14 97 97 NW 3 6 30.06 1018 7 11.26538 0 0
6:15 am 06:15 Clear 58 14.6 57 14.1 97 97 NW 3 6 30.07 1018 7 11.26538 0 0
6:35 am 06:35 Sunny 58 14.5 57 14 97 97 NW 5 7 30.08 1019 7 11.26538 0 0
6:55 am 06:55 Sunny 58 14.6 57 14.1 97 97 WNW 5 7 30.09 1019 7 11.26538 0 0
7:15 am 07:15 Sunny 59 15 58 14.4 96 96 NW 3 6 30.09 1019 10 16.0934 0 0
7:35 am 07:35 Sunny 59 15 58 14.5 97 97 NNW 3 6 30.09 1019 7 11.26538 0 0
7:55 am 07:55 Sunny 59 15.1 58 14.5 96 96 NW 3 6 30.1 1019 7 11.26538 0 0
8:15 am 08:15 Sunny 61 15.9 59 15.2 96 96 NNW 3 6 30.1 1019 10 16.0934 0 0
8:35 am 08:35 Sunny 63 17.2 61 16 93 93 NNW 3 6 30.09 1019 10 16.0934 0 0
8:55 am 08:55 Sunny 65 18.5 62 16.7 89 89 NNW 5 7 30.08 1019 10 16.0934 0 0
9:15 am 09:15 Sunny 66 19.1 62 16.9 87 87 Calm 30.06 1018 10 16.0934 0 0
9:35 am 09:35 Sunny 68 20 63 17.2 84 84 NNE 3 6 30.07 1018 10 16.0934 0 0
9:55 am 09:55 Sunny 69 20.8 63 17 79 79 N 3 6 30.06 1018 10 16.0934 0 0
10:15 am 10:15 Sunny 70 21.2 62 16.8 76 76 NNE 3 6 30.05 1018 10 16.0934 0 0
10:35 am 10:35 Sunny 71 21.5 62 16.9 75 75 NE 3 6 30.04 1017 10 16.0934 0 0
10:55 am 10:55 Sunny 72 22.2 62 16.9 72 72 Calm 30.04 1017 10 16.0934 0 0
11:15 am 11:15 Partly Cloudy 73 22.7 61 16.2 67 67 NNE 5 7 30.03 1017 10 16.0934 0 0
11:35 am 11:35 Partly Cloudy 75 24.1 61 16 61 61 N 8 13 30.02 1017 10 16.0934 0 0
11:55 am 11:55 Partly Cloudy 74 23.6 61 15.9 62 62 N 6 9 30.02 1017 10 16.0934 0 0
12:15 pm 12:15 Partly Cloudy 74 23.6 61 16 63 63 NW 5 7 30.02 1017 10 16.0934 0 0
12:35 pm 12:35 Partly Cloudy 75 24.1 60 15.7 60 60 NNE 6 9 30.01 1016 10 16.0934 0 0
12:55 pm 12:55 Partly Cloudy 75 23.7 60 15.6 61 61 NNE 5 7 30.02 1016 10 16.0934 0 0
1:15 pm 13:15 Partly Cloudy 76 24.5 61 16.1 60 60 NE 5 7 30 1016 10 16.0934 0 0
1:35 pm 13:35 Partly Cloudy 76 24.4 60 15.3 57 57 NW 5 7 30 1016 10 16.0934 0 0
1:55 pm 13:55 Partly Cloudy 77 24.9 60 15.7 57 57 NNE 5 7 30.01 1016 10 16.0934 0 0
2:15 pm 14:15 Mostly Cloudy 77 25 61 15.9 57 57 NW 5 7 29.98 1015 10 16.0934 0 0
2:35 pm 14:35 Partly Cloudy 77 25.2 60 15.6 55 55 N 6 9 29.98 1015 10 16.0934 0 0
2:55 pm 14:55 Partly Cloudy 78 25.7 60 15.5 53 53 N 5 7 29.98 1015 10 16.0934 0 0
3:15 pm 15:15 Partly Cloudy 78 25.6 60 15.6 54 54 N 6 9 29.97 1015 10 16.0934 0 0
3:35 pm 15:35 Partly Cloudy 80 26.5 60 15.4 51 51 NW 7 11 29.95 1014 10 16.0934 0 0
3:55 pm 15:55 Partly Cloudy 79 26.1 60 15.4 52 52 Calm 29.97 1015 10 16.0934 0 0
4:15 pm 16:15 Partly Cloudy 80 26.5 60 15.7 52 52 NNE 5 7 29.96 1015 10 16.0934 0 0
4:35 pm 16:35 Partly Cloudy 80 26.5 61 16 53 53 NE 8 13 29.94 1014 10 16.0934 0 0
4:55 pm 16:55 Partly Cloudy 79 26 59 15.1 51 51 NNE 5 7 29.96 1015 10 16.0934 0 0
5:15 pm 17:15 Partly Cloudy 80 26.5 60 15.3 50 50 N 5 7 29.95 1014 10 16.0934 0 0
5:35 pm 17:35 Sunny 80 26.6 60 15.5 51 51 NNE 5 7 29.95 1014 10 16.0934 0 0
5:55 pm 17:55 Sunny 79 26.1 59 15.2 51 51 NNE 5 7 29.95 1014 10 16.0934 0 0
6:15 pm 18:15 Sunny 80 26.6 60 15.6 51 51 NE 3 6 29.94 1014 10 16.0934 0 0
6:35 pm 18:35 Sunny 80 26.5 61 16 53 53 NE 8 13 29.93 1014 10 16.0934 0 0
6:55 pm 18:55 Sunny 79 26 61 16 54 54 ENE 6 9 29.93 1013 10 16.0934 0 0
7:15 pm 19:15 Sunny 78 25.8 62 16.5 57 57 ENE 5 7 29.93 1014 10 16.0934 0 0
7:35 pm 19:35 Sunny 77 25.2 62 16.9 60 60 E 7 11 29.93 1014 10 16.0934 0 0
7:55 pm 19:55 Sunny 76 24.4 62 16.6 62 62 E 6 9 29.94 1014 10 16.0934 0 0
8:15 pm 20:15 Sunny 73 22.9 64 17.6 72 72 E 5 7 29.95 1014 10 16.0934 0 0
8:35 pm 20:35 Sunny 71 21.7 64 18 80 80 E 5 7 29.95 1014 10 16.0934 0 0
8:55 pm 20:55 Clear 70 21.1 64 17.8 82 82 E 6 9 29.96 1014 10 16.0934 0 0
9:15 pm 21:15 Clear 69 20.6 63 17.3 81 81 E 6 9 29.97 1015 10 16.0934 0 0
9:35 pm 21:35 Clear 69 20.5 63 17 80 80 Calm 29.97 1015 10 16.0934 0 0
9:55 pm 21:55 Clear 67 19.5 62 16.9 85 85 Calm 30 1016 10 16.0934 0 0
10:15 pm 22:15 Clear 66 19 63 17.2 89 89 Calm 30 1016 10 16.0934 0 0
10:35 pm 22:35 Clear 66 19.1 63 17.1 88 88 Calm 29.99 1016 10 16.0934 0 0
10:55 pm 22:55 Clear 66 18.8 63 17 89 89 Calm 30.01 1016 10 16.0934 0 0
11:15 pm 23:15 Clear 65 18.1 62 16.5 90 90 Calm 30.01 1016 10 16.0934 0 0
11:35 pm 23:35 Clear 63 17.1 61 16.1 94 94 Calm 30.03 1017 10 16.0934 0 0
11:55 pm 23:55 Clear 63 17.1 61 16.2 94 94 Calm 30.03 1017 10 16.0934 0 0

Powered by AerisWeather